{"data":{"norad_id":59315,"intl_designator":"2024-056V","name":"STARLINK-31446","alt_names":[],"object_type":"PAYLOAD","status":"ACTIVE","operator":null,"country":"US","launch_date":"2024-03-24","launch_site_code":"AFETR","launch_vehicle":null,"mission":null,"orbit_class":"UNKNOWN","rcs_meters":null,"size_class":null,"mass_kg":null,"dimensions":null,"purposes":["comms"],"wikipedia_slug":null,"has_3d_model":false,"image_url":null,"decayed_at":null,"tle_current":{"epoch":"2026-05-25T00:51:09.075744Z","epoch_age_seconds":65935,"freshness":"FRESH","line1":"1 59315U 24056V   26145.03552171 -.00003709  00000+0 -12542-3 0  9999","line2":"2 59315  43.0080 159.2718 0003466 270.7748  89.2706 15.27535929122833","mean_motion":15.27535929,"eccentricity":0.0003466,"inclination_deg":43.008,"raan_deg":159.2718,"arg_perigee_deg":270.7748,"mean_anomaly_deg":89.2706,"bstar":-0.00012542,"rev_number":12283,"period_min":94.269468407378,"perigee_km":480.8029308,"apogee_km":485.55919648172,"semimajor_km":6861.3180636409,"source":"CELESTRAK","updated_at":"2026-05-25T13:38:18.901489Z"}}}